This is the latest recevied weather packets stored in our database for station/object DC0VZ-6. If no packets are shown the sender has not sent any weather packets the latest 10 day(s).
| Time | Temp. | Humidity | Pressure | Rain* | Wind** | Luminosity | Snow |
|---|---|---|---|---|---|---|---|
| 1777878374 | 14.44° C | 43% | 982.6 hPa | 0 mm | - | - | - |
| 1777877774 | 13.89° C | 42% | 982.2 hPa | 0 mm | - | - | - |
| 1777877174 | 13.33° C | 42% | 982.2 hPa | 0 mm | - | - | - |
| 1777876574 | 13.33° C | 42% | 982.1 hPa | 0 mm | - | - | - |
| 1777875974 | 12.22° C | 43% | 982.1 hPa | 0 mm | - | - | - |
| 1777875373 | 11.67° C | 42% | 982.4 hPa | 0 mm | - | - | - |
| 1777874774 | 11.11° C | 42% | 982.4 hPa | 0 mm | - | - | - |
| 1777874174 | 10.56° C | 42% | 982.1 hPa | 0 mm | - | - | - |
| 1777873574 | 10.56° C | 41% | 982.1 hPa | 0 mm | - | - | - |
| 1777872973 | 10° C | 41% | 982.2 hPa | 0 mm | - | - | - |
| 1777872373 | 9.44° C | 41% | 982.2 hPa | 0 mm | - | - | - |
| 1777871773 | 9.44° C | 40% | 982.2 hPa | 0 mm | - | - | - |
| 1777871173 | 8.89° C | 40% | 982.2 hPa | 0 mm | - | - | - |
| 1777870574 | 8.89° C | 40% | 982 hPa | 0 mm | - | - | - |
| 1777869973 | 8.33° C | 39% | 982 hPa | 0 mm | - | - | - |
| 1777869373 | 8.33° C | 39% | 981.9 hPa | 0 mm | - | - | - |
| 1777868773 | 7.78° C | 39% | 981.9 hPa | 0 mm | - | - | - |
| 1777868173 | 7.22° C | 38% | 982.1 hPa | 0 mm | - | - | - |
| 1777867572 | 7.22° C | 38% | 982.1 hPa | 0 mm | - | - | - |
| 1777866972 | 7.78° C | 38% | 982.1 hPa | 0 mm | - | - | - |
| 1777866372 | 8.33° C | 37% | 982.1 hPa | 0 mm | - | - | - |
| 1777865772 | 7.22° C | 37% | 982.1 hPa | 0 mm | - | - | - |
| 1777865172 | 7.22° C | 37% | 982.1 hPa | 0 mm | - | - | - |
| 1777864572 | 7.22° C | 37% | 981.9 hPa | 0 mm | - | - | - |
| 1777863972 | 7.78° C | 36% | 981.9 hPa | 0 mm | - | - | - |
* Rain latest hour (hover to see other rain measurements)
** Current wind speed in m/s (hover to see current wind gust speed)